Regional Weather Roundup
Issued by NWS State College, PA

Home | Current Version | Previous Version | Text Only | Print | Product List | Glossary On
Versions: 1 2 3 4 5 6 7 8 9 10 11 12 13 14 15 16 17 18 19 20 21 22 23 24 25 26 27 28 29 30 31 32 33 34 35 36 37 38 39 40 41 42 43 44 45 46 47 48 49 50
000
ASUS41 KCTP 300603
RWRCTP

REGIONAL WEATHER ROUNDUP
NATIONAL WEATHER SERVICE STATE COLLEGE PA
200 AM EDT WED JUL 30 2014

Note: "fair" indicates few or no clouds below 12,000 feet with no
significant weather and/or obstructions to visibility.

* = STATION THAT DOES NOT REPORT PRECIPITATION /E.G. RAIN...SNOW...ETC/
    THUNDER OR FOG.

PAZ002>004-007>009-013>016-020>023-029>032-300700-
WESTERN PENNSYLVANIA

CITY           SKY/WX    TMP DP  RH WIND       PRES   REMARKS
ERIE           MOCLDY    60  53  77 E5        29.98F
MEADVILLE      MOCLDY    57  51  80 S5        30.01F
FRANKLIN*      PTCLDY    52  46  82 SW5       30.03F
NEW CASTLE       N/A     54  51  89 CALM      30.03F
BEAVER COUNTY  NOT AVBL
BUTLER*        CLEAR     52  48  87 CALM      30.05F
PITTSBURGH INT CLEAR     56  51  84 CALM      30.03F
PITTSBURGH     CLEAR     56  49  77 S6        30.03F
INDIANA*       PTCLDY    54  52  94 CALM      30.08F
LATROBE        CLEAR     52  52 100 CALM      30.06S
WASHINGTON CO* CLEAR     48  46  93 CALM      30.05F
$$

PAZ004>006-010>012-017>019-024>028-033>037-041-042-045-046-049>053-300700-
CENTRAL PENNSYLVANIA

CITY           SKY/WX    TMP DP  RH WIND       PRES   REMARKS
BRADFORD       PTCLDY    44  42  93 CALM      30.03S
DUBOIS         CLEAR     51  48  89 CALM      30.03S
CLEARFIELD     MOCLDY    52  52 100 CALM      30.04F
JOHNSTOWN      CLEAR     50  48  93 SW6       30.06S
ALTOONA        CLEAR     51  50  96 CALM      30.06S
STATE COLLEGE  PTCLDY    54  51  90 SW6       30.03S
WILLIAMSPORT   CLEAR     57  53  86 CALM      30.00S
SELINSGROVE    CLEAR     54  53  97 CALM      30.02S
FT INDIANTOWN  CLEAR     52  52 100 NE1       30.01F
CAPITAL CITY   CLEAR     57  52  83 W3        30.01F
HARRISBURG     PTCLDY    60  53  77 N5        30.01S
YORK           CLEAR     52  50  93 CALM      30.02S
$$

PAZ038>040-043-044-047-048-054-055-060>062-067>071-300700-
EASTERN PENNSYLVANIA

CITY           SKY/WX    TMP DP  RH WIND       PRES   REMARKS
SCRANTON       CLEAR     54  50  86 SE5       30.01S
MOUNT POCONO   CLEAR     49  47  93 CALM      30.03R
ALLENTOWN      CLEAR     57  53  86 CALM      30.00F
QUAKERTOWN*    CLEAR     54  54 100 CALM      30.01S
READING        CLEAR     57  53  86 CALM      30.00S
LANCASTER      CLEAR     57  53  86 W7        30.01S
COATESVILLE    CLEAR     57  57 100 NW5       30.01F
POTTSTOWN      CLEAR     56  53  90 CALM      30.01S
BLUE BELL      PTCLDY    57  55  94 CALM      29.99R
DOYLESTOWN     MOCLDY    59  56  89 CALM      29.99F
WILLOW GROVE   NOT AVBL
NORTH PHILA    PTCLDY    65  53  65 CALM      30.00F
PHILADELPHIA   PTCLDY    66  53  63 N5        29.99F
$$


USA.gov is the U.S. government's official web portal to all federal, state and local government web resources and services.